| time (UTC) | temp F | wind direction | speed MPH | gust MPH | rain 1hr in | rain 24hr in | rain mn in | humidity % | barometer mb |
| 20260506211818 | 59 | 274 | 1.0 | 1.0 | 0.24 | 0.33 | 0.33 | 99 | 1031.2 |
| 20260506211315 | 60 | 295 | 1.0 | 1.0 | 0.26 | 0.32 | 0.32 | 99 | 1031.1 |
| 20260506210813 | 60 | 305 | 0.0 | 1.0 | 0.12 | 0.29 | 0.29 | 99 | 1031.0 |
| 20260506210309 | 60 | 25 | 0.0 | 1.0 | 0.05 | 0.28 | 0.28 | 99 | 1030.8 |
| 20260506205806 | 60 | 338 | 0.0 | 0.0 | 0.12 | 0.28 | 0.28 | 99 | 1030.9 |
| 20260506205305 | 60 | 0 | 1.0 | 1.0 | 0.07 | 0.27 | 0.27 | 99 | 1031.0 |
| 20260506204759 | 60 | 347 | 0.0 | 0.0 | 0.05 | 0.26 | 0.26 | 99 | 1031.0 |
| 20260506204257 | 60 | 175 | 3.0 | 5.0 | 0.05 | 0.26 | 0.26 | 99 | 1030.8 |
| 20260506203754 | 60 | 322 | 0.0 | 0.0 | 0.07 | 0.25 | 0.25 | 99 | 1030.9 |
| 20260506203251 | 60 | 7 | 0.0 | 1.0 | 0.07 | 0.25 | 0.25 | 98 | 1030.9 |
| 20260506202748 | 60 | 328 | 0.0 | 0.0 | 0.00 | 0.24 | 0.24 | 98 | 1030.8 |
| 20260506202245 | 60 | 335 | 0.0 | 0.0 | 0.05 | 0.24 | 0.24 | 98 | 1030.9 |
| 20260506201741 | 60 | 310 | 2.0 | 2.0 | 0.05 | 0.24 | 0.24 | 98 | 1031.0 |
| 20260506201238 | 60 | 2 | 1.0 | 1.0 | 0.00 | 0.23 | 0.23 | 97 | 1030.9 |
| 20260506200735 | 60 | 340 | 0.0 | 0.0 | 0.07 | 0.23 | 0.23 | 97 | 1031.4 |
| 20260506200232 | 60 | 331 | 0.0 | 0.0 | 0.07 | 0.23 | 0.23 | 97 | 1031.2 |
| 20260506195728 | 60 | 321 | 0.0 | 0.0 | 0.00 | 0.22 | 0.22 | 97 | 1031.2 |
| 20260506195225 | 60 | 1 | 1.0 | 1.0 | 0.00 | 0.22 | 0.22 | 97 | 1031.2 |
| 20260506194722 | 60 | 199 | 2.0 | 2.0 | 0.00 | 0.22 | 0.22 | 97 | 1031.2 |
| 20260506194218 | 60 | 359 | 0.0 | 1.0 | 0.00 | 0.22 | 0.22 | 97 | 1031.2 |
| 20260506193716 | 60 | 340 | 0.0 | 0.0 | 0.00 | 0.22 | 0.22 | 97 | 1031.6 |
| 20260506193213 | 60 | 337 | 0.0 | 0.0 | 0.00 | 0.22 | 0.22 | 98 | 1031.6 |
| 20260506192709 | 60 | 335 | 0.0 | 0.0 | 0.00 | 0.22 | 0.22 | 98 | 1031.4 |
| 20260506192206 | 60 | 21 | 0.0 | 1.0 | 0.00 | 0.22 | 0.22 | 98 | 1031.5 |
| 20260506191657 | 60 | 343 | 0.0 | 0.0 | 0.00 | 0.22 | 0.22 | 98 | 1031.5 |
| 20260506191153 | 60 | 329 | 0.0 | 0.0 | 0.00 | 0.22 | 0.22 | 99 | 1031.7 |
| 20260506190650 | 60 | 324 | 0.0 | 0.0 | 0.00 | 0.22 | 0.22 | 99 | 1031.7 |
| 20260506190147 | 59 | 307 | 0.0 | 1.0 | 0.00 | 0.22 | 0.22 | 99 | 1031.8 |
| 20260506185644 | 59 | 328 | 0.0 | 0.0 | 0.05 | 0.22 | 0.22 | 99 | 1031.7 |
| 20260506185140 | 59 | 327 | 0.0 | 0.0 | 0.05 | 0.22 | 0.22 | 99 | 1031.9 |
| 20260506184638 | 59 | 341 | 0.0 | 0.0 | 0.00 | 0.21 | 0.21 | 99 | 1032.0 |
| 20260506184135 | 59 | 289 | 1.0 | 1.0 | 0.00 | 0.21 | 0.21 | 99 | 1031.9 |
| 20260506183632 | 59 | 325 | 0.0 | 1.0 | 0.00 | 0.21 | 0.21 | 99 | 1031.9 |
| 20260506183127 | 59 | 334 | 0.0 | 0.0 | 0.07 | 0.21 | 0.21 | 99 | 1032.0 |
| 20260506182625 | 59 | 338 | 0.0 | 0.0 | 0.05 | 0.20 | 0.20 | 99 | 1032.0 |
| 20260506182122 | 59 | 335 | 0.0 | 0.0 | 0.12 | 0.20 | 0.20 | 99 | 1032.2 |
| 20260506181620 | 59 | 28 | 0.0 | 1.0 | 0.12 | 0.19 | 0.19 | 99 | 1032.2 |
| 20260506181117 | 59 | 290 | 2.0 | 5.0 | 0.12 | 0.18 | 0.18 | 99 | 1032.7 |
| 20260506180614 | 59 | 131 | 3.0 | 5.0 | 0.14 | 0.17 | 0.17 | 99 | 1032.3 |
| 20260506180110 | 59 | 116 | 1.0 | 2.0 | 0.12 | 0.16 | 0.16 | 99 | 1032.2 |
| 20260506175606 | 59 | 324 | 0.0 | 0.0 | 0.12 | 0.15 | 0.15 | 99 | 1032.3 |
| 20260506175102 | 59 | 324 | 0.0 | 1.0 | 0.12 | 0.14 | 0.14 | 99 | 1032.2 |
| 20260506174602 | 60 | 325 | 0.0 | 0.0 | 0.12 | 0.13 | 0.13 | 99 | 1032.5 |
| 20260506174057 | 60 | 11 | 0.0 | 1.0 | 0.12 | 0.12 | 0.12 | 99 | 1032.3 |
| 20260506173555 | 60 | 334 | 0.0 | 0.0 | 0.12 | 0.11 | 0.11 | 98 | 1032.6 |
| 20260506173052 | 60 | 330 | 0.0 | 0.0 | 0.12 | 0.10 | 0.10 | 98 | 1032.7 |
| 20260506172549 | 60 | 331 | 0.0 | 0.0 | 0.12 | 0.09 | 0.09 | 98 | 1032.7 |
| 20260506172045 | 60 | 327 | 0.0 | 0.0 | 0.07 | 0.08 | 0.08 | 98 | 1032.7 |
| 20260506171543 | 60 | 335 | 0.0 | 0.0 | 0.05 | 0.07 | 0.07 | 98 | 1032.9 |
| 20260506171041 | 60 | 334 | 0.0 | 0.0 | 0.05 | 0.07 | 0.07 | 98 | 1032.8 |
| 20260506170538 | 60 | 338 | 0.0 | 0.0 | 0.07 | 0.06 | 0.06 | 98 | 1032.6 |
| 20260506170036 | 59 | 330 | 0.0 | 0.0 | 0.07 | 0.06 | 0.06 | 98 | 1032.8 |
| 20260506165534 | 59 | 332 | 0.0 | 0.0 | 0.05 | 0.05 | 0.05 | 98 | 1032.8 |
| 20260506165030 | 59 | 330 | 0.0 | 0.0 | 0.05 | 0.05 | 0.05 | 98 | 1032.8 |
| 20260506164527 | 60 | 346 | 0.0 | 0.0 | 0.00 | 0.04 | 0.04 | 98 | 1032.8 |
| 20260506164024 | 60 | 340 | 0.0 | 0.0 | 0.00 | 0.04 | 0.04 | 98 | 1033.1 |
| 20260506163520 | 59 | 344 | 0.0 | 0.0 | 0.07 | 0.04 | 0.04 | 97 | 1033.1 |
| 20260506163016 | 59 | 319 | 0.0 | 0.0 | 0.07 | 0.04 | 0.04 | 97 | 1033.4 |
| 20260506162512 | 59 | 319 | 0.0 | 0.0 | 0.00 | 0.03 | 0.03 | 97 | 1033.3 |
| 20260506162009 | 60 | 330 | 0.0 | 0.0 | 0.07 | 0.03 | 0.03 | 97 | 1033.3 |
| 20260506161507 | 59 | 352 | 0.0 | 0.0 | 0.07 | 0.03 | 0.03 | 96 | 1033.1 |
| 20260506161004 | 60 | 319 | 0.0 | 0.0 | 0.00 | 0.02 | 0.02 | 96 | 1033.3 |
| 20260506160502 | 59 | 337 | 0.0 | 0.0 | 0.00 | 0.02 | 0.02 | 96 | 1033.2 |
| 20260506155958 | 59 | 347 | 0.0 | 0.0 | 0.00 | 0.02 | 0.02 | 95 | 1033.2 |
| 20260506155456 | 59 | 353 | 0.0 | 0.0 | 0.00 | 0.02 | 0.02 | 96 | 1033.6 |
| 20260506153628 | 59 | 342 | 0.0 | 0.0 | 0.05 | 0.02 | 0.02 | 93 | 1034.2 |
| 20260506153125 | 59 | 328 | 0.0 | 0.0 | 0.00 | 0.01 | 0.01 | 93 | 1034.2 |
| 20260506152622 | 59 | 325 | 0.0 | 0.0 | 0.00 | 0.01 | 0.01 | 92 | 1034.4 |
| 20260506152120 | 59 | 340 | 0.0 | 0.0 | 0.00 | 0.01 | 0.01 | 92 | 1034.4 |
| 20260506151619 | 59 | 347 | 0.0 | 0.0 | 0.00 | 0.01 | 0.01 | 91 | 1034.3 |
| 20260506151115 | 59 | 333 | 0.0 | 0.0 | 0.00 | 0.01 | 0.01 | 90 | 1034.5 |
| 20260506150612 | 60 | 297 | 0.0 | 0.0 | 0.07 | 0.01 | 0.01 | 90 | 1034.6 |
| 20260506150109 | 60 | 333 | 0.0 | 0.0 | 0.07 | 0.01 | 0.01 | 90 | 1034.5 |
| 20260506145606 | 60 | 334 | 0.0 | 0.0 | 0.07 | 0.01 | 0.01 | 90 | 1034.5 |
| 20260506145103 | 60 | 329 | 0.0 | 0.0 | 0.00 | 0.00 | 0.00 | 90 | 1034.5 |
| 20260506144559 | 60 | 325 | 0.0 | 0.0 | 0.00 | 0.00 | 0.00 | 90 | 1034.5 |
| 20260506144056 | 60 | 327 | 0.0 | 0.0 | 0.00 | 0.00 | 0.00 | 88 | 1034.5 |
| 20260506143554 | 60 | 333 | 0.0 | 0.0 | 0.00 | 0.00 | 0.00 | 87 | 1034.4 |
| 20260506143052 | 60 | 322 | 0.0 | 0.0 | 0.00 | 0.00 | 0.00 | 86 | 1034.5 |
| 20260506142550 | 60 | 325 | 0.0 | 1.0 | 0.00 | 0.00 | 0.00 | 85 | 1034.7 |
| 20260506142048 | 60 | 338 | 0.0 | 0.0 | 0.00 | 0.00 | 0.00 | 85 | 1034.3 |
| 20260506141545 | 60 | 332 | 0.0 | 0.0 | 0.00 | 0.00 | 0.00 | 85 | 1034.5 |
| 20260506141044 | 60 | 325 | 0.0 | 0.0 | 0.00 | 0.00 | 0.00 | 86 | 1034.6 |
| 20260506140541 | 59 | 249 | 2.0 | 2.0 | 0.00 | 0.00 | 0.00 | 85 | 1034.6 |
| 20260506140038 | 59 | 143 | 1.0 | 2.0 | 0.00 | 0.00 | 0.00 | 86 | 1034.6 |
| 20260506135535 | 59 | 315 | 0.0 | 1.0 | 0.00 | 0.00 | 0.00 | 86 | 1034.3 |
| 20260506135031 | 59 | 141 | 2.0 | 2.0 | 0.00 | 0.00 | 0.00 | 86 | 1034.3 |
| 20260506134527 | 59 | 141 | 3.0 | 3.0 | 0.00 | 0.00 | 0.00 | 85 | 1034.5 |
| 20260506134024 | 59 | 305 | 0.0 | 1.0 | 0.00 | 0.00 | 0.00 | 86 | 1034.5 |
| 20260506133521 | 59 | 336 | 2.0 | 2.0 | 0.00 | 0.00 | 0.00 | 86 | 1034.5 |
| 20260506133018 | 59 | 323 | 0.0 | 0.0 | 0.00 | 0.00 | 0.00 | 87 | 1034.4 |
| 20260506132515 | 59 | 357 | 1.0 | 1.0 | 0.00 | 0.00 | 0.00 | 86 | 1034.7 |
| 20260506132012 | 59 | 356 | 1.0 | 1.0 | 0.00 | 0.00 | 0.00 | 86 | 1034.7 |
| 20260506131509 | 59 | 339 | 0.0 | 0.0 | 0.00 | 0.00 | 0.00 | 87 | 1035.0 |
| 20260506131006 | 59 | 174 | 1.0 | 2.0 | 0.00 | 0.00 | 0.00 | 87 | 1035.3 |
| 20260506130502 | 59 | 7 | 1.0 | 1.0 | 0.00 | 0.00 | 0.00 | 87 | 1035.3 |
| 20260506130000 | 59 | 154 | 2.0 | 2.0 | 0.00 | 0.00 | 0.00 | 87 | 1035.5 |
| 20260506125458 | 58 | 325 | 0.0 | 0.0 | 0.00 | 0.00 | 0.00 | 88 | 1035.2 |
| 20260506124955 | 58 | 329 | 0.0 | 0.0 | 0.00 | 0.00 | 0.00 | 88 | 1035.2 |
| 20260506124453 | 58 | 313 | 1.0 | 1.0 | 0.00 | 0.00 | 0.00 | 87 | 1034.7 |
| 20260506123951 | 58 | 1 | 0.0 | 1.0 | 0.00 | 0.00 | 0.00 | 87 | 1034.5 |
| 20260506123449 | 58 | 328 | 0.0 | 0.0 | 0.00 | 0.00 | 0.00 | 88 | 1035.1 |
| 20260506122946 | 58 | 322 | 0.0 | 0.0 | 0.00 | 0.00 | 0.00 | 88 | 1035.2 |
| 20260506122443 | 58 | 328 | 0.0 | 0.0 | 0.00 | 0.00 | 0.00 | 88 | 1035.0 |
| 20260506121941 | 58 | 335 | 0.0 | 0.0 | 0.00 | 0.00 | 0.00 | 89 | 1034.8 |
| 20260506121438 | 58 | 348 | 0.0 | 0.0 | 0.00 | 0.00 | 0.00 | 90 | 1034.9 |
| 20260506120934 | 57 | 331 | 0.0 | 0.0 | 0.00 | 0.00 | 0.00 | 89 | 1035.1 |
| 20260506120432 | 57 | 328 | 0.0 | 0.0 | 0.00 | 0.00 | 0.00 | 90 | 1035.2 |
| 20260506115929 | 57 | 296 | 0.0 | 0.0 | 0.00 | 0.00 | 0.00 | 91 | 1035.1 |
| 20260506115427 | 57 | 323 | 0.0 | 0.0 | 0.00 | 0.00 | 0.00 | 93 | 1035.1 |
| 20260506114925 | 57 | 331 | 0.0 | 0.0 | 0.00 | 0.00 | 0.00 | 93 | 1035.0 |
| 20260506114423 | 57 | 334 | 0.0 | 0.0 | 0.00 | 0.00 | 0.00 | 93 | 1035.0 |
| 20260506113921 | 57 | 340 | 0.0 | 0.0 | 0.00 | 0.00 | 0.00 | 93 | 1035.0 |
| 20260506113419 | 57 | 343 | 0.0 | 0.0 | 0.00 | 0.00 | 0.00 | 94 | 1035.1 |
| 20260506112915 | 56 | 343 | 0.0 | 0.0 | 0.00 | 0.00 | 0.00 | 94 | 1035.1 |
| 20260506112413 | 56 | 337 | 0.0 | 0.0 | 0.00 | 0.00 | 0.00 | 94 | 1035.2 |
| 20260506111910 | 56 | 329 | 0.0 | 0.0 | 0.00 | 0.00 | 0.00 | 94 | 1035.2 |
| 20260506111408 | 56 | 325 | 0.0 | 0.0 | 0.00 | 0.00 | 0.00 | 94 | 1035.3 |
| 20260506110905 | 56 | 2 | 0.0 | 0.0 | 0.00 | 0.00 | 0.00 | 94 | 1035.2 |
| 20260506110402 | 55 | 326 | 0.0 | 0.0 | 0.00 | 0.00 | 0.00 | 95 | 1035.2 |
| 20260506105859 | 55 | 343 | 0.0 | 0.0 | 0.00 | 0.00 | 0.00 | 95 | 1035.1 |
| 20260506105355 | 55 | 299 | 0.0 | 0.0 | 0.00 | 0.00 | 0.00 | 96 | 1035.1 |
| 20260506104853 | 55 | 319 | 0.0 | 0.0 | 0.00 | 0.00 | 0.00 | 96 | 1035.4 |
| 20260506104350 | 54 | 331 | 0.0 | 0.0 | 0.00 | 0.00 | 0.00 | 96 | 1035.2 |
| 20260506103848 | 54 | 331 | 0.0 | 0.0 | 0.00 | 0.00 | 0.00 | 97 | 1035.2 |
| 20260506103345 | 54 | 327 | 0.0 | 0.0 | 0.00 | 0.00 | 0.00 | 97 | 1035.1 |
| 20260506102842 | 54 | 326 | 0.0 | 0.0 | 0.00 | 0.00 | 0.00 | 97 | 1035.2 |
| 20260506102340 | 54 | 324 | 0.0 | 0.0 | 0.00 | 0.00 | 0.00 | 97 | 1035.3 |
| 20260506101837 | 54 | 347 | 0.0 | 0.0 | 0.00 | 0.00 | 0.00 | 97 | 1034.9 |
| 20260506101333 | 54 | 323 | 0.0 | 0.0 | 0.00 | 0.00 | 0.00 | 97 | 1035.3 |
| 20260506100831 | 54 | 316 | 0.0 | 0.0 | 0.00 | 0.00 | 0.00 | 97 | 1035.0 |
| 20260506100329 | 54 | 340 | 0.0 | 0.0 | 0.00 | 0.00 | 0.00 | 97 | 1035.1 |
| 20260506095827 | 55 | 327 | 0.0 | 0.0 | 0.00 | 0.00 | 0.00 | 97 | 1035.1 |
| 20260506095324 | 55 | 339 | 0.0 | 0.0 | 0.00 | 0.00 | 0.00 | 96 | 1035.1 |
| 20260506094821 | 55 | 339 | 0.0 | 0.0 | 0.00 | 0.00 | 0.00 | 96 | 1035.1 |
| 20260506094320 | 55 | 339 | 0.0 | 0.0 | 0.00 | 0.00 | 0.00 | 96 | 1035.1 |
| 20260506093817 | 55 | 340 | 0.0 | 0.0 | 0.00 | 0.00 | 0.00 | 96 | 1035.1 |
| 20260506093314 | 56 | 339 | 0.0 | 0.0 | 0.00 | 0.00 | 0.00 | 96 | 1035.1 |
| 20260506092812 | 56 | 341 | 0.0 | 0.0 | 0.00 | 0.00 | 0.00 | 95 | 1035.1 |
| 20260506092309 | 56 | 319 | 0.0 | 0.0 | 0.00 | 0.00 | 0.00 | 95 | 1035.1 |
| 20260506091807 | 56 | 318 | 0.0 | 0.0 | 0.00 | 0.00 | 0.00 | 95 | 1035.2 |
| 20260506091304 | 56 | 328 | 0.0 | 0.0 | 0.00 | 0.00 | 0.00 | 95 | 1035.0 |
| 20260506090802 | 56 | 323 | 0.0 | 0.0 | 0.00 | 0.00 | 0.00 | 95 | 1035.3 |
| 20260506090259 | 57 | 324 | 0.0 | 0.0 | 0.00 | 0.00 | 0.00 | 94 | 1035.2 |
| 20260506085755 | 57 | 324 | 0.0 | 0.0 | 0.00 | 0.00 | 0.00 | 93 | 1035.3 |
| 20260506085252 | 57 | 330 | 0.0 | 0.0 | 0.00 | 0.00 | 0.00 | 93 | 1035.1 |
| 20260506084748 | 57 | 331 | 0.0 | 0.0 | 0.00 | 0.00 | 0.00 | 93 | 1035.1 |
| 20260506084245 | 57 | 330 | 0.0 | 0.0 | 0.00 | 0.00 | 0.00 | 94 | 1035.5 |
| 20260506083742 | 57 | 329 | 0.0 | 0.0 | 0.00 | 0.00 | 0.00 | 94 | 1035.6 |
| 20260506083240 | 57 | 330 | 0.0 | 0.0 | 0.00 | 0.00 | 0.00 | 94 | 1035.4 |
| 20260506082737 | 57 | 330 | 0.0 | 0.0 | 0.00 | 0.00 | 0.00 | 94 | 1035.6 |
| 20260506082232 | 57 | 330 | 0.0 | 0.0 | 0.00 | 0.00 | 0.00 | 94 | 1035.3 |
| 20260506081730 | 57 | 329 | 0.0 | 0.0 | 0.00 | 0.00 | 0.00 | 93 | 1035.6 |
| 20260506081227 | 58 | 330 | 0.0 | 0.0 | 0.00 | 0.00 | 0.00 | 93 | 1035.7 |
| 20260506080725 | 58 | 330 | 0.0 | 0.0 | 0.00 | 0.00 | 0.00 | 92 | 1035.4 |
| 20260506080221 | 58 | 330 | 0.0 | 0.0 | 0.00 | 0.00 | 0.00 | 92 | 1035.4 |
| 20260506073206 | 59 | 345 | 0.0 | 0.0 | 0.00 | 0.00 | 0.00 | 91 | 1035.6 |
| 20260506072702 | 59 | 357 | 0.0 | 0.0 | 0.00 | 0.00 | 0.00 | 89 | 1035.5 |
| 20260506072200 | 60 | 345 | 0.0 | 0.0 | 0.00 | 0.00 | 0.00 | 88 | 1035.7 |
| 20260506071657 | 60 | 345 | 0.0 | 0.0 | 0.00 | 0.00 | 0.00 | 87 | 1035.6 |
| 20260506071155 | 60 | 344 | 0.0 | 0.0 | 0.00 | 0.00 | 0.00 | 87 | 1035.5 |
| 20260506070651 | 60 | 346 | 0.0 | 0.0 | 0.00 | 0.00 | 0.00 | 87 | 1035.4 |
| 20260506070148 | 60 | 349 | 0.0 | 1.0 | 0.00 | 0.00 | 0.00 | 87 | 1035.7 |
| 20260506062126 | 61 | 332 | 0.0 | 0.0 | 0.00 | 0.00 | 0.00 | 85 | 1035.4 |
| 20260506061621 | 61 | 339 | 0.0 | 0.0 | 0.00 | 0.00 | 0.00 | 85 | 1035.6 |
| 20260506061120 | 61 | 340 | 0.0 | 0.0 | 0.00 | 0.00 | 0.00 | 85 | 1035.6 |
| 20260506060618 | 61 | 333 | 0.0 | 0.0 | 0.00 | 0.00 | 0.00 | 84 | 1035.4 |
| 20260506060114 | 61 | 325 | 0.0 | 1.0 | 0.00 | 0.00 | 0.00 | 83 | 1035.8 |
| 20260506051046 | 60 | 340 | 0.0 | 0.0 | 0.00 | 0.00 | 0.00 | 87 | 1035.6 |
| 20260506050544 | 60 | 324 | 0.0 | 0.0 | 0.00 | 0.00 | 0.00 | 88 | 1035.6 |
| 20260506045034 | 62 | 343 | 0.0 | 0.0 | 0.00 | 0.00 | 0.00 | 83 | 1035.5 |
| 20260506044533 | 62 | 346 | 0.0 | 0.0 | 0.00 | 0.00 | 0.00 | 82 | 1035.3 |
| 20260506044029 | 62 | 339 | 0.0 | 0.0 | 0.00 | 0.00 | 0.00 | 82 | 1034.9 |
| 20260506043526 | 62 | 335 | 0.0 | 1.0 | 0.00 | 0.00 | 0.00 | 82 | 1035.3 |
| 20260506043025 | 62 | 323 | 0.0 | 0.0 | 0.00 | 0.00 | 0.00 | 82 | 1035.4 |
| 20260506042523 | 61 | 335 | 0.0 | 0.0 | 0.00 | 0.00 | 0.00 | 83 | 1035.4 |
| 20260506042021 | 61 | 319 | 1.0 | 1.0 | 0.00 | 0.00 | 0.00 | 84 | 1035.6 |
| 20260506041519 | 61 | 330 | 0.0 | 0.0 | 0.00 | 0.00 | 0.00 | 85 | 1035.3 |
| 20260506041016 | 61 | 330 | 0.0 | 1.0 | 0.00 | 0.00 | 0.00 | 86 | 1035.6 |
| 20260506040514 | 61 | 357 | 1.0 | 1.0 | 0.00 | 0.00 | 0.00 | 86 | 1035.5 |
| 20260506040009 | 61 | 332 | 0.0 | 0.0 | 0.00 | 0.02 | 0.02 | 84 | 1035.4 |
| 20260506035506 | 60 | 338 | 0.0 | 0.0 | 0.00 | 0.02 | 0.02 | 85 | 1035.6 |
| 20260506035003 | 60 | 321 | 0.0 | 0.0 | 0.00 | 0.02 | 0.02 | 87 | 1035.4 |
| 20260506034501 | 61 | 320 | 0.0 | 1.0 | 0.00 | 0.02 | 0.02 | 85 | 1035.4 |
| 20260506033957 | 61 | 334 | 0.0 | 0.0 | 0.00 | 0.02 | 0.02 | 83 | 1035.3 |
| 20260506033455 | 61 | 334 | 0.0 | 0.0 | 0.00 | 0.02 | 0.02 | 84 | 1035.3 |
| 20260506032951 | 60 | 319 | 0.0 | 0.0 | 0.00 | 0.02 | 0.02 | 85 | 1035.4 |
| 20260506032449 | 60 | 334 | 0.0 | 0.0 | 0.00 | 0.02 | 0.02 | 86 | 1035.2 |
| 20260506031945 | 61 | 335 | 0.0 | 0.0 | 0.00 | 0.02 | 0.02 | 86 | 1035.1 |
| 20260506031443 | 61 | 345 | 0.0 | 0.0 | 0.00 | 0.02 | 0.02 | 86 | 1035.1 |
| 20260506030940 | 60 | 325 | 0.0 | 0.0 | 0.00 | 0.02 | 0.02 | 85 | 1035.5 |
| 20260506030438 | 60 | 324 | 0.0 | 0.0 | 0.00 | 0.02 | 0.02 | 85 | 1035.4 |
| 20260506025934 | 61 | 321 | 0.0 | 0.0 | 0.00 | 0.02 | 0.02 | 85 | 1035.4 |
| 20260506025431 | 61 | 347 | 0.0 | 0.0 | 0.00 | 0.02 | 0.02 | 83 | 1035.2 |
| 20260506024928 | 61 | 339 | 0.0 | 0.0 | 0.00 | 0.02 | 0.02 | 84 | 1035.4 |
| 20260506024425 | 61 | 338 | 0.0 | 0.0 | 0.00 | 0.02 | 0.02 | 84 | 1035.5 |
| 20260506023921 | 61 | 337 | 0.0 | 0.0 | 0.00 | 0.02 | 0.02 | 84 | 1035.4 |
| 20260506023418 | 61 | 321 | 0.0 | 0.0 | 0.00 | 0.02 | 0.02 | 85 | 1035.4 |
| 20260506022914 | 60 | 322 | 0.0 | 0.0 | 0.00 | 0.02 | 0.02 | 86 | 1035.4 |
| 20260506022412 | 60 | 322 | 0.0 | 0.0 | 0.00 | 0.02 | 0.02 | 87 | 1035.3 |
| 20260506021910 | 60 | 321 | 0.0 | 0.0 | 0.00 | 0.02 | 0.02 | 88 | 1035.4 |
| 20260506021407 | 60 | 324 | 0.0 | 0.0 | 0.00 | 0.02 | 0.02 | 88 | 1035.4 |
| 20260506020904 | 60 | 325 | 0.0 | 0.0 | 0.00 | 0.02 | 0.02 | 87 | 1035.4 |
| 20260506020402 | 60 | 329 | 0.0 | 0.0 | 0.00 | 0.02 | 0.02 | 87 | 1035.3 |
| 20260506015859 | 60 | 327 | 0.0 | 0.0 | 0.00 | 0.02 | 0.02 | 87 | 1035.2 |
| 20260506015356 | 60 | 318 | 0.0 | 1.0 | 0.00 | 0.02 | 0.02 | 87 | 1035.1 |
| 20260506014853 | 61 | 327 | 0.0 | 0.0 | 0.00 | 0.02 | 0.02 | 87 | 1035.2 |
| 20260506014350 | 61 | 328 | 0.0 | 0.0 | 0.00 | 0.02 | 0.02 | 86 | 1035.2 |
| 20260506013846 | 61 | 324 | 0.0 | 0.0 | 0.00 | 0.02 | 0.02 | 84 | 1035.2 |
| 20260506013344 | 61 | 337 | 0.0 | 0.0 | 0.00 | 0.02 | 0.02 | 87 | 1035.2 |
| 20260506012840 | 61 | 327 | 0.0 | 0.0 | 0.00 | 0.02 | 0.02 | 86 | 1035.1 |
| 20260506012337 | 61 | 341 | 0.0 | 0.0 | 0.00 | 0.02 | 0.02 | 85 | 1034.8 |
| 20260506011835 | 61 | 337 | 0.0 | 0.0 | 0.00 | 0.02 | 0.02 | 86 | 1035.0 |
| 20260506011331 | 61 | 355 | 0.0 | 0.0 | 0.00 | 0.02 | 0.02 | 89 | 1035.0 |
| 20260506010829 | 61 | 335 | 0.0 | 0.0 | 0.00 | 0.02 | 0.02 | 88 | 1034.9 |
| 20260506010327 | 61 | 330 | 0.0 | 1.0 | 0.00 | 0.02 | 0.02 | 89 | 1034.9 |
| 20260506005823 | 61 | 325 | 0.0 | 0.0 | 0.00 | 0.02 | 0.02 | 90 | 1035.2 |
| 20260506005320 | 61 | 175 | 0.0 | 1.0 | 0.00 | 0.02 | 0.02 | 89 | 1035.1 |
| 20260506004816 | 61 | 319 | 0.0 | 0.0 | 0.00 | 0.02 | 0.02 | 89 | 1034.7 |
| 20260506004314 | 61 | 340 | 0.0 | 0.0 | 0.00 | 0.02 | 0.02 | 89 | 1034.9 |
| 20260506003809 | 61 | 319 | 0.0 | 0.0 | 0.00 | 0.02 | 0.02 | 90 | 1034.8 |
| 20260506003306 | 61 | 338 | 0.0 | 0.0 | 0.00 | 0.02 | 0.02 | 90 | 1034.7 |
| 20260506002802 | 62 | 327 | 0.0 | 0.0 | 0.00 | 0.02 | 0.02 | 89 | 1035.0 |
| 20260506002259 | 62 | 314 | 0.0 | 1.0 | 0.00 | 0.02 | 0.02 | 88 | 1034.8 |
| 20260506001754 | 63 | 328 | 0.0 | 0.0 | 0.00 | 0.02 | 0.02 | 85 | 1034.8 |
| 20260506001252 | 63 | 332 | 0.0 | 0.0 | 0.00 | 0.02 | 0.02 | 83 | 1034.6 |
| 20260506000749 | 63 | 350 | 0.0 | 1.0 | 0.00 | 0.02 | 0.02 | 83 | 1034.7 |
| 20260506000247 | 63 | 328 | 0.0 | 0.0 | 0.00 | 0.02 | 0.02 | 83 | 1034.6 |
| 20260505235743 | 63 | 337 | 0.0 | 0.0 | 0.00 | 0.02 | 0.02 | 82 | 1034.9 |
| 20260505235241 | 62 | 332 | 0.0 | 0.0 | 0.00 | 0.02 | 0.02 | 84 | 1034.7 |
| 20260505234738 | 62 | 326 | 0.0 | 0.0 | 0.00 | 0.02 | 0.02 | 85 | 1034.7 |
| 20260505234235 | 62 | 340 | 0.0 | 0.0 | 0.00 | 0.02 | 0.02 | 87 | 1034.9 |
| 20260505233731 | 62 | 320 | 0.0 | 0.0 | 0.00 | 0.02 | 0.02 | 87 | 1034.7 |
| 20260505233230 | 63 | 317 | 0.0 | 0.0 | 0.00 | 0.02 | 0.02 | 87 | 1034.9 |
| 20260505232726 | 63 | 322 | 0.0 | 0.0 | 0.00 | 0.02 | 0.02 | 85 | 1034.6 |
| 20260505232224 | 63 | 347 | 0.0 | 1.0 | 0.00 | 0.02 | 0.02 | 83 | 1034.2 |
| 20260505231721 | 63 | 324 | 0.0 | 0.0 | 0.00 | 0.02 | 0.02 | 84 | 1034.2 |
| 20260505231220 | 63 | 349 | 0.0 | 0.0 | 0.00 | 0.02 | 0.02 | 83 | 1034.1 |
| 20260505230717 | 64 | 324 | 0.0 | 0.0 | 0.00 | 0.02 | 0.02 | 81 | 1034.1 |
| 20260505230214 | 64 | 1 | 1.0 | 1.0 | 0.00 | 0.02 | 0.02 | 83 | 1034.2 |
| 20260505225710 | 64 | 344 | 0.0 | 0.0 | 0.00 | 0.02 | 0.02 | 83 | 1034.0 |
| 20260505225207 | 64 | 337 | 0.0 | 0.0 | 0.00 | 0.02 | 0.02 | 81 | 1034.4 |
| 20260505224702 | 64 | 357 | 0.0 | 0.0 | 0.00 | 0.02 | 0.02 | 81 | 1034.3 |
| 20260505224201 | 64 | 334 | 0.0 | 0.0 | 0.00 | 0.02 | 0.02 | 81 | 1034.2 |
| 20260505223658 | 64 | 356 | 1.0 | 1.0 | 0.00 | 0.02 | 0.02 | 82 | 1034.0 |
| 20260505223154 | 63 | 353 | 0.0 | 1.0 | 0.00 | 0.02 | 0.02 | 84 | 1033.8 |
| 20260505222650 | 64 | 327 | 0.0 | 0.0 | 0.00 | 0.02 | 0.02 | 82 | 1034.4 |
| 20260505222146 | 64 | 335 | 0.0 | 0.0 | 0.00 | 0.02 | 0.02 | 83 | 1033.9 |
| 20260505221643 | 64 | 336 | 0.0 | 0.0 | 0.00 | 0.02 | 0.02 | 81 | 1034.1 |
| 20260505221140 | 65 | 338 | 0.0 | 0.0 | 0.00 | 0.02 | 0.02 | 81 | 1033.7 |
| 20260505220637 | 64 | 322 | 0.0 | 0.0 | 0.00 | 0.02 | 0.02 | 78 | 1033.6 |
| 20260505220135 | 63 | 319 | 0.0 | 0.0 | 0.00 | 0.02 | 0.02 | 88 | 1033.8 |
| 20260505215632 | 63 | 329 | 0.0 | 0.0 | 0.00 | 0.02 | 0.02 | 89 | 1033.7 |
| 20260505215130 | 62 | 325 | 0.0 | 0.0 | 0.00 | 0.02 | 0.02 | 89 | 1033.2 |
| 20260505214628 | 62 | 325 | 0.0 | 0.0 | 0.00 | 0.02 | 0.02 | 89 | 1033.4 |
| 20260505214125 | 62 | 339 | 0.0 | 0.0 | 0.00 | 0.02 | 0.02 | 87 | 1033.1 |
| 20260505213623 | 62 | 342 | 0.0 | 0.0 | 0.00 | 0.02 | 0.02 | 88 | 1033.4 |
| 20260505213119 | 61 | 330 | 0.0 | 0.0 | 0.00 | 0.02 | 0.02 | 85 | 1033.4 |
| 20260505212615 | 62 | 12 | 2.0 | 2.0 | 0.05 | 0.02 | 0.02 | 90 | 1033.3 |
| 20260505212113 | 62 | 323 | 2.0 | 3.0 | 0.05 | 0.02 | 0.02 | 89 | 1033.6 |